Overview Statistics Trail Chart Weather Telemetry Raw packets
 

This is the latest recevied weather packets stored in our database for station/object KI6SYE. If no packets are shown the sender has not sent any weather packets the latest 10 day(s).

<< 53 54 55 56 57 58 59 >>
Time Temp. Humidity Pressure Rain* Wind** Luminosity Snow
1788314346 21.11° C 79% 1013.6 hPa 0 mm - 16 W/m² -
1788314041 21.11° C 79% 1013.6 hPa 0 mm - 20 W/m² -
1788313737 21.11° C 78% 1013.5 hPa 0 mm - 24 W/m² -
1788313433 21.67° C 78% 1013.6 hPa 0 mm - 29 W/m² -
1788313132 21.67° C 77% 1013.6 hPa 0 mm - 35 W/m² -
1788312828 21.67° C 78% 1013.5 hPa 0 mm - 41 W/m² -
1788312523 21.11° C 78% 1013.6 hPa 0 mm - 33 W/m² -
1788312219 21.67° C 78% 1013.6 hPa 0 mm - 55 W/m² -
1788311915 21.67° C 77% 1013.6 hPa 0 mm - 34 W/m² -
1788311609 21.67° C 77% 1013.7 hPa 0 mm - 72 W/m² -
1788311308 21.67° C 77% 1013.5 hPa 0 mm - 50 W/m² -
1788311004 21.67° C 77% 1013.7 hPa 0 mm - 38 W/m² -
1788310702 21.67° C 78% 1013.8 hPa 0 mm - 102 W/m² -
1788310397 22.22° C 77% 1013.7 hPa 0 mm - 118 W/m² -
1788310093 22.22° C 77% 1013.7 hPa 0 mm - 127 W/m² -
1788309787 22.22° C 77% 1013.8 hPa 0 mm - 140 W/m² -
1788309483 22.22° C 76% 1013.8 hPa 0 mm - 155 W/m² -
1788309178 22.22° C 76% 1013.9 hPa 0 mm - 172 W/m² -
1788308874 22.22° C 76% 1013.7 hPa 0 mm - 182 W/m² -
1788308573 22.22° C 77% 1014 hPa 0 mm - 193 W/m² -
1788308269 22.22° C 77% 1013.9 hPa 0 mm - 209 W/m² -
1788307963 22.22° C 76% 1013.8 hPa 0 mm - 227 W/m² -
1788307658 22.78° C 76% 1013.9 hPa 0 mm - 238 W/m² -
1788307353 22.78° C 76% 1014 hPa 0 mm - 255 W/m² -
1788307052 22.78° C 76% 1014 hPa 0 mm - 267 W/m² -

* Rain latest hour (hover to see other rain measurements)
** Current wind speed in m/s (hover to see current wind gust speed)